Jakarta Soekarno-Hatta, Indonesia

9:52 PM WIB on June 22, 2018 (GMT +0700)
Soekarno-Hatta International

Weather History for WIII - February, 2018

Change the Weather History Date:

Tuesday, February 13, 2018

  Actual Average Record
Temperature  
Mean Temperature 82 °F -  
Max Temperature 87 °F - - ()
Min Temperature 76 °F - - ()
Cooling Degree Days 16    
Growing Degree Days 32 (Base 50)    
Moisture  
Dew Point 74 °F    
Average Humidity 79    
Maximum Humidity 100    
Minimum Humidity 62    
Precipitation  
Precipitation 0.35 in - - ()
Sea Level Pressure  
Sea Level Pressure 29.91 in    
Wind  
Wind Speed 7 mph ()    
Max Wind Speed 16 mph    
Max Gust Speed 20 mph    
Visibility 4.4 miles    
Events Rain    
T = Trace of Precipitation, MM = Missing Value Source: Averaged Metar Reports

Daily Weather History Graph

Daily Weather History Graph

Search for Another Location

Airport or City:

Astronomy

Feb. 13, 2018 Rise Set
Actual Time 5:58 AM WIB 6:16 PM WIB
Civil Twilight 5:36 AM WIB 6:38 PM WIB
Nautical Twilight 5:11 AM WIB 7:03 PM WIB
Astronomical Twilight 4:46 AM WIB 7:28 PM WIB
Moon 3:42 AM WIB (2/13) 4:23 PM WIB (2/13)
Length of Visible Light 13h 01m
Length of Day
12h 18m
Waning Crescent, 7% of the Moon is Illuminated
Feb 13
Waning Crescent
Feb 16
New
Feb 23
First Quarter
Mar 2
Full
Mar 9
Last Quarter

Hourly Weather History & Observations

Time (WIB) Temp. Heat Index Dew Point Humidity Pressure Visibility Wind Dir Wind Speed Gust Speed Precip Events Conditions
12:00 AM 80.6 °F 86.2 °F 75.2 °F 84% 29.92 in 3.1 mi West 8.1 mph - N/A   Haze
12:30 AM 80.6 °F 86.2 °F 75.2 °F 84% 29.92 in 3.1 mi West 9.2 mph - N/A   Haze
1:00 AM 79 °F - 74 °F 81% 29.91 in 3 mi West 4.6 mph - -   Haze
1:00 AM 78.8 °F - 75.2 °F 89% 29.89 in 3.1 mi West 8.1 mph - N/A   Haze
1:30 AM 78.8 °F - 75.2 °F 89% 29.89 in 3.1 mi West 6.9 mph - N/A   Haze
2:00 AM 78.8 °F - 75.2 °F 89% 29.89 in 3.1 mi West 8.1 mph - N/A   Haze
2:30 AM 78.8 °F - 75.2 °F 89% 29.89 in 3.1 mi WSW 6.9 mph - N/A   Haze
3:00 AM 78.8 °F - 75.2 °F 89% 29.89 in 3.1 mi West 8.1 mph - N/A   Scattered Clouds
3:30 AM 80.6 °F 85.4 °F 73.4 °F 79% 29.89 in 3.1 mi West 8.1 mph - N/A   Scattered Clouds
4:00 AM 80 °F - 73 °F 74% 29.92 in 3 mi WNW 2.3 mph - -   Haze
4:00 AM 80.6 °F 85.4 °F 73.4 °F 79% 29.89 in 3.1 mi West 8.1 mph - N/A   Scattered Clouds
4:30 AM 80.6 °F 85.4 °F 73.4 °F 79% 29.89 in 3.1 mi WNW 6.9 mph - N/A   Scattered Clouds
5:00 AM 80.6 °F 85.4 °F 73.4 °F 79% 29.92 in 3.7 mi WNW 8.1 mph - N/A   Scattered Clouds
5:30 AM 80.6 °F 85.4 °F 73.4 °F 79% 29.92 in 3.7 mi West 6.9 mph - N/A   Scattered Clouds
6:00 AM 80.6 °F 85.4 °F 73.4 °F 79% 29.92 in 3.7 mi Variable 5.8 mph - N/A   Scattered Clouds
6:30 AM 77.0 °F - 73.4 °F 89% 29.95 in 3.1 mi SW 3.5 mph - N/A Rain Light Rain
7:00 AM 79 °F - 73 °F 76% 29.96 in 4 mi West 2.3 mph - -   Overcast
7:00 AM 78.8 °F - 73.4 °F 83% 29.95 in 3.7 mi West 4.6 mph - N/A   Mostly Cloudy
7:30 AM 80.6 °F 85.4 °F 73.4 °F 79% 29.95 in 3.7 mi Variable 5.8 mph - N/A   Mostly Cloudy
8:00 AM 80.6 °F 86.2 °F 75.2 °F 84% 29.95 in 3.7 mi Variable 5.8 mph - N/A   Mostly Cloudy
8:30 AM 82.4 °F 88.2 °F 73.4 °F 74% 29.95 in 4.3 mi WNW 8.1 mph - N/A   Mostly Cloudy
9:00 AM 82.4 °F 88.2 °F 73.4 °F 74% 29.95 in 4.3 mi WNW 9.2 mph - N/A   Mostly Cloudy
9:30 AM 82.4 °F 88.2 °F 73.4 °F 74% 29.95 in 5.0 mi WNW 6.9 mph 18.4 mph N/A   Mostly Cloudy
10:00 AM 83 °F - 73 °F 65% 29.96 in 6 mi WNW 8.1 mph - -   Overcast
10:00 AM 84.2 °F 92.3 °F 75.2 °F 74% 29.95 in 5.6 mi NW 8.1 mph 19.6 mph N/A   Mostly Cloudy
10:30 AM 82.4 °F 88.2 °F 73.4 °F 74% 29.95 in 6.2 mi WNW 12.7 mph - N/A   Mostly Cloudy
11:00 AM 84.2 °F 90.9 °F 73.4 °F 70% 29.95 in 6.2 mi WNW 11.5 mph - N/A   Mostly Cloudy
11:30 AM 84.2 °F 90.9 °F 73.4 °F 70% 29.92 in 6.2 mi WNW 11.5 mph - N/A   Mostly Cloudy
12:00 PM 86.0 °F 95.1 °F 75.2 °F 70% 29.92 in 6.2 mi WNW 12.7 mph - N/A   Mostly Cloudy
12:30 PM 86.0 °F 93.4 °F 73.4 °F 66% 29.89 in 6.2 mi WNW 15.0 mph - N/A   Scattered Clouds
1:00 PM 85 °F - 74 °F 62% 29.93 in 6 mi NW 5.8 mph - -   Partly Cloudy
1:00 PM 86.0 °F 91.8 °F 71.6 °F 62% 29.89 in 6.2 mi NW 16.1 mph - N/A   Scattered Clouds
1:30 PM 86.0 °F 91.8 °F 71.6 °F 62% 29.89 in 5.6 mi NW 15.0 mph - N/A   Scattered Clouds
2:00 PM 86.0 °F 93.4 °F 73.4 °F 66% 29.89 in 6.2 mi WNW 11.5 mph - N/A   Scattered Clouds
3:00 PM 84.2 °F 90.9 °F 73.4 °F 70% 29.86 in 6.2 mi NW 9.2 mph - N/A   Scattered Clouds
3:30 PM 84.2 °F 90.9 °F 73.4 °F 70% 29.83 in 6.2 mi NW 8.1 mph - N/A   Scattered Clouds
4:00 PM 85 °F - 74 °F 64% 29.84 in 6 mi NNW 5.8 mph - -   Partly Cloudy
4:00 PM 84.2 °F 90.9 °F 73.4 °F 70% 29.83 in 6.2 mi NNW 8.1 mph - N/A   Scattered Clouds
4:30 PM 84.2 °F 90.9 °F 73.4 °F 70% 29.83 in 6.2 mi NW 6.9 mph - N/A   Scattered Clouds
5:00 PM 80.6 °F 86.2 °F 75.2 °F 84% 29.86 in 5.6 mi Variable 3.5 mph - N/A   Mostly Cloudy
5:30 PM 84.2 °F 92.3 °F 75.2 °F 74% 29.86 in 5.6 mi Variable 2.3 mph - N/A   Mostly Cloudy
6:00 PM 82.4 °F 89.5 °F 75.2 °F 79% 29.89 in 4.3 mi Variable 2.3 mph - N/A   Mostly Cloudy
6:30 PM 82.4 °F 90.9 °F 77.0 °F 84% 29.89 in 3.7 mi Variable 1.2 mph - N/A   Mostly Cloudy
7:00 PM 76 °F - 75 °F 96% 29.91 in 2 mi Calm Calm - - Rain Light Rain
7:00 PM 77.0 °F - 75.2 °F 94% 29.89 in 2.5 mi Variable 2.3 mph - N/A Rain Light Rain
7:30 PM 77.0 °F - 77.0 °F 100% 29.89 in 3.7 mi Calm Calm - N/A   Mostly Cloudy
8:00 PM 78.8 °F - 75.2 °F 89% 29.92 in 4.3 mi SSW 3.5 mph - N/A   Scattered Clouds
8:30 PM 78.8 °F - 75.2 °F 89% 29.92 in 4.3 mi SW 8.1 mph - N/A   Partly Cloudy
9:00 PM 78.8 °F - 73.4 °F 83% 29.92 in 4.3 mi SW 8.1 mph - N/A   Scattered Clouds
9:30 PM 78.8 °F - 73.4 °F 83% 29.92 in 4.3 mi SW 6.9 mph - N/A   Scattered Clouds
10:00 PM 78 °F - 73 °F 80% 29.95 in 4 mi SW 6.9 mph - -   Partly Cloudy
10:00 PM 77.0 °F - 73.4 °F 89% 29.95 in 4.3 mi SW 6.9 mph - N/A   Partly Cloudy
10:30 PM 77.0 °F - 73.4 °F 89% 29.92 in 4.3 mi WSW 8.1 mph - N/A   Partly Cloudy
11:00 PM 77.0 °F - 73.4 °F 89% 29.92 in 4.3 mi SW 5.8 mph - N/A   Partly Cloudy
11:30 PM 77.0 °F - 73.4 °F 89% 29.92 in 4.3 mi SW 6.9 mph - N/A   Partly Cloudy